TimeEDT,TemperatureF,Dew PointF,Humidity,Sea Level PressureIn,VisibilityMPH,Wind Direction,Wind SpeedMPH,Gust SpeedMPH,PrecipitationIn,Events,Conditions,WindDirDegrees,DateUTC
12:15 AM,69.8,68.0,94,30.07,6.0,NNE,8.1,-,0.06,,Mostly Cloudy,30,2013-07-02 04:15:00
12:35 AM,69.8,68.0,94,30.08,7.0,NNE,8.1,-,0.06,,Overcast,20,2013-07-02 04:35:00
12:55 AM,68.0,66.2,94,30.09,9.0,NNE,6.9,-,0.07,,Overcast,30,2013-07-02 04:55:00
1:15 AM,66.2,66.2,100,30.08,8.0,NNE,11.5,-,0.01,,Overcast,20,2013-07-02 05:15:00
1:35 AM,64.4,62.6,94,30.08,8.0,NNE,11.5,-,0.01,,Overcast,20,2013-07-02 05:35:00
1:55 AM,64.4,62.6,94,30.08,9.0,NNE,9.2,-,0.02,,Overcast,30,2013-07-02 05:55:00
2:15 AM,64.4,62.6,94,30.09,8.0,NNE,9.2,-,N/A,,Overcast,30,2013-07-02 06:15:00
2:35 AM,64.4,62.6,94,30.08,8.0,NNE,10.4,-,N/A,,Overcast,30,2013-07-02 06:35:00
2:55 AM,64.4,62.6,94,30.08,10.0,NNE,10.4,-,N/A,,Overcast,30,2013-07-02 06:55:00
3:15 AM,62.6,62.6,100,30.10,5.0,NNE,10.4,-,N/A,,Overcast,20,2013-07-02 07:15:00
3:35 AM,62.6,60.8,94,30.10,5.0,NNE,12.7,17.3,N/A,,Overcast,20,2013-07-02 07:35:00
3:55 AM,60.8,57.2,88,30.11,5.0,North,13.8,-,0.01,,Overcast,10,2013-07-02 07:55:00
4:15 AM,59.0,55.4,88,30.11,5.0,NNE,15.0,19.6,N/A,,Overcast,20,2013-07-02 08:15:00
4:35 AM,59.0,55.4,88,30.12,4.0,NNE,13.8,20.7,0.02,,Overcast,20,2013-07-02 08:35:00
4:55 AM,57.2,55.4,94,30.13,4.0,NNE,13.8,-,0.05,,Overcast,20,2013-07-02 08:55:00
5:15 AM,57.2,55.4,94,30.13,3.0,North,12.7,18.4,0.01,,Overcast,10,2013-07-02 09:15:00
5:35 AM,57.2,55.4,94,30.14,2.5,North,11.5,16.1,0.02,,Overcast,10,2013-07-02 09:35:00
5:55 AM,57.2,55.4,94,30.14,2.0,NNE,10.4,-,0.03,,Overcast,20,2013-07-02 09:55:00
6:15 AM,57.2,55.4,94,30.15,2.5,NNE,11.5,-,N/A,,Overcast,20,2013-07-02 10:15:00
6:35 AM,57.2,55.4,94,30.15,2.0,NNE,12.7,-,0.01,,Overcast,30,2013-07-02 10:35:00
6:55 AM,57.2,55.4,94,30.15,2.0,North,10.4,-,0.01,,Overcast,10,2013-07-02 10:55:00
7:15 AM,57.2,55.4,94,30.17,2.5,North,11.5,16.1,N/A,,Overcast,10,2013-07-02 11:15:00
7:35 AM,57.2,55.4,94,30.17,2.0,NNE,11.5,-,0.02,,Overcast,20,2013-07-02 11:35:00
7:55 AM,57.2,55.4,94,30.18,2.0,North,11.5,-,0.04,,Overcast,10,2013-07-02 11:55:00
8:15 AM,57.2,55.4,94,30.18,2.0,NNE,11.5,-,0.01,,Overcast,30,2013-07-02 12:15:00
8:35 AM,57.2,55.4,94,30.18,2.0,NNE,10.4,17.3,0.02,,Overcast,30,2013-07-02 12:35:00
8:55 AM,57.2,55.4,94,30.18,3.0,NNE,10.4,-,0.02,,Overcast,20,2013-07-02 12:55:00
9:15 AM,57.2,57.2,100,30.19,2.5,NNE,9.2,-,N/A,,Overcast,20,2013-07-02 13:15:00
9:35 AM,57.2,57.2,100,30.19,2.0,NNE,12.7,-,0.01,,Overcast,20,2013-07-02 13:35:00
10:15 AM,57.2,57.2,100,30.20,2.5,NNE,9.2,-,N/A,,Overcast,30,2013-07-02 14:15:00
10:35 AM,57.2,57.2,100,30.19,2.5,NE,6.9,-,N/A,,Overcast,40,2013-07-02 14:35:00
10:55 AM,57.2,57.2,100,30.19,2.0,NNE,10.4,-,N/A,,Overcast,20,2013-07-02 14:55:00
11:15 AM,57.2,57.2,100,30.20,2.0,NNE,10.4,16.1,0.01,,Overcast,30,2013-07-02 15:15:00
11:35 AM,57.2,57.2,100,30.20,2.0,NNE,10.4,-,0.01,,Overcast,20,2013-07-02 15:35:00
11:55 AM,57.2,55.4,94,30.19,3.0,NNE,9.2,-,0.01,,Overcast,30,2013-07-02 15:55:00
12:15 PM,57.2,57.2,100,30.18,5.0,NNE,10.4,-,N/A,,Overcast,30,2013-07-02 16:15:00
12:35 PM,57.2,57.2,100,30.19,8.0,NNE,9.2,-,N/A,,Overcast,30,2013-07-02 16:35:00
12:55 PM,59.0,57.2,94,30.19,7.0,NNE,8.1,-,N/A,,Overcast,30,2013-07-02 16:55:00
1:15 PM,59.0,57.2,94,30.19,7.0,NNE,6.9,-,N/A,,Overcast,30,2013-07-02 17:15:00
1:35 PM,59.0,57.2,94,30.19,7.0,NE,5.8,-,N/A,,Overcast,40,2013-07-02 17:35:00
1:55 PM,59.0,57.2,94,30.19,6.0,NNE,8.1,-,N/A,,Overcast,30,2013-07-02 17:55:00
2:15 PM,59.0,57.2,94,30.19,7.0,NNE,9.2,-,N/A,,Overcast,20,2013-07-02 18:15:00
2:35 PM,59.0,57.2,94,30.19,5.0,NNE,8.1,-,N/A,,Overcast,30,2013-07-02 18:35:00
2:55 PM,59.0,57.2,94,30.19,2.0,NE,5.8,-,N/A,,Overcast,50,2013-07-02 18:55:00
3:15 PM,59.0,57.2,94,30.18,1.8,NE,5.8,-,0.01,,Overcast,40,2013-07-02 19:15:00
3:35 PM,59.0,59.0,100,30.19,2.0,NNE,3.5,-,0.02,,Overcast,30,2013-07-02 19:35:00
3:55 PM,59.0,57.2,94,30.18,4.0,NNE,6.9,-,0.02,,Overcast,30,2013-07-02 19:55:00
4:15 PM,60.8,57.2,88,30.18,5.0,NNE,5.8,-,N/A,,Overcast,30,2013-07-02 20:15:00
4:35 PM,60.8,59.0,94,30.17,6.0,NE,5.8,-,N/A,,Overcast,40,2013-07-02 20:35:00
4:55 PM,60.8,59.0,94,30.18,6.0,North,6.9,-,N/A,,Overcast,10,2013-07-02 20:55:00
5:15 PM,60.8,59.0,94,30.17,5.0,NNE,6.9,-,N/A,,Overcast,30,2013-07-02 21:15:00
5:35 PM,59.0,57.2,94,30.18,3.0,NNE,8.1,-,N/A,,Overcast,20,2013-07-02 21:35:00
5:55 PM,59.0,57.2,94,30.18,3.0,NNE,8.1,-,N/A,,Overcast,30,2013-07-02 21:55:00
6:15 PM,57.2,57.2,100,30.18,2.5,NNE,6.9,-,N/A,,Overcast,20,2013-07-02 22:15:00
6:35 PM,57.2,57.2,100,30.18,3.0,North,5.8,-,N/A,,Overcast,10,2013-07-02 22:35:00
6:55 PM,57.2,57.2,100,30.18,3.0,North,5.8,-,N/A,,Overcast,10,2013-07-02 22:55:00
7:15 PM,57.2,57.2,100,30.18,3.0,NNE,6.9,-,N/A,,Overcast,30,2013-07-02 23:15:00
7:35 PM,57.2,57.2,100,30.18,2.5,NNE,4.6,-,0.01,,Overcast,20,2013-07-02 23:35:00
7:55 PM,57.2,57.2,100,30.18,5.0,NE,3.5,-,0.01,,Overcast,40,2013-07-02 23:55:00
8:15 PM,57.2,57.2,100,30.18,5.0,NNE,4.6,-,N/A,,Overcast,20,2013-07-03 00:15:00
8:35 PM,57.2,57.2,100,30.19,5.0,Calm,Calm,-,N/A,,Overcast,0,2013-07-03 00:35:00
8:55 PM,57.2,57.2,100,30.19,7.0,NNE,5.8,-,N/A,,Overcast,20,2013-07-03 00:55:00
9:15 PM,57.2,55.4,94,30.19,6.0,Calm,Calm,-,N/A,,Overcast,0,2013-07-03 01:15:00
9:35 PM,57.2,57.2,100,30.19,6.0,Calm,Calm,-,N/A,,Overcast,0,2013-07-03 01:35:00
9:55 PM,57.2,57.2,100,30.19,7.0,Calm,Calm,-,N/A,,Overcast,0,2013-07-03 01:55:00
10:15 PM,57.2,55.4,94,30.18,7.0,NNE,4.6,-,N/A,,Mostly Cloudy,20,2013-07-03 02:15:00
10:35 PM,57.2,57.2,100,30.18,7.0,North,3.5,-,N/A,,Mostly Cloudy,360,2013-07-03 02:35:00
10:55 PM,57.2,55.4,94,30.17,8.0,Calm,Calm,-,N/A,,Mostly Cloudy,0,2013-07-03 02:55:00
11:15 PM,57.2,57.2,100,30.17,1.8,Calm,Calm,-,N/A,,Overcast,0,2013-07-03 03:15:00
11:35 PM,57.2,57.2,100,30.17,5.0,Calm,Calm,-,N/A,,Overcast,0,2013-07-03 03:35:00
11:55 PM,57.2,55.4,94,30.17,8.0,Calm,Calm,-,N/A,,Overcast,0,2013-07-03 03:55:00